Location: Gollag?dem
(16.8053°N, 80.8024°E)
Time: 14:29:52
(UTC+00:00)

SAR-Lupe-4 - Pass Details

Date: 13 August 2020
Orbit: 482 x 484 km, 98.2° (Epoch: 21 September)

Event Time Altitude Azimuth Distance (km) Brightness Sun altitude
Rises 23:34:53 0° 179° (S) 2,529 7.0 -11.2°
Reaches altitude 10° 23:37:00 10° 185° (S) 1,651 6.0 -10.7°
Maximum altitude 23:40:24 46° 259° (W) 657 3.8 -10.0°
Drops below altitude 10° 23:43:49 10° 333° (NNW) 1,655 6.2 -9.2°
Sets 23:45:56 0° 340° (NNW) 2,535 7.2 -8.7°
